187P/LINEAR (2008)

Japanese version
Home page
Total 5,708 html files since Dec. 4, 1995
Updated on January 27, 2008

---------------------------------------------------------------------

* Profile

Designation 187P/2007 E3
Recovery Date March 9, 2007
Magnitude 21.2 mag
Recoverer E. J. Christensen (Mount Lemmon Survey)

* Orbital Elements

                    Epoch = 2008 Oct. 21.0 TT
     T = 2008 Oct.  6.3021 TT         Peri. = 131.9564
     e = 0.170548                     Node  = 112.0027  2000.0
     q = 3.693255 AU                  Incl. =  13.7323
       a =  4.452644 AU    n = 0.1049004    P =   9.40 years

* Finding Charts

* Magnitudes Graph

        m1 = 6.0 + 5 log d + 20 log r

---------------------------------------------------------------------

The orbital elements are calculated by G. V. Williams and printed on IAUC 8827.
The charts are made with StellaNavigator Ver.2.0 for Windows (AstroArts / ASCII).
The magnitudes graphs are made with Comet for Windows.

---------------------------------------------------------------------

Copyright(C) 1995-2007 Seiichi Yoshida (comet@aerith.net). All rights reserved.